Regional Weather Roundup
Issued by NWS

Home | Current Version | Previous Version | Graphics & Text | Print | Product List | Glossary On
Versions: 1 2 3 4 5 6 7 8 9 10 11 12 13 14 15 16 17 18 19 20 21 22 23 24 25 26 27 28 29 30 31 32 33 34 35 36 37 38 39 40 41 42 43 44 45 46 47 48 49 50
000
ASUS43 KFSD 140910
RWRSD

WEATHER ROUNDUP FOR SOUTH DAKOTA
NATIONAL WEATHER SERVICE SIOUX FALLS SD
300 AM CST THU DEC 14 2017

NOTE: "FAIR" INDICATES FEW OR NO CLOUDS BELOW 12,000 FEET WITH NO
SIGNIFICANT WEATHER AND/OR OBSTRUCTIONS TO VISIBILITY.


SDZ001>005-009-010-012>017-141000-
NORTHWEST AND NORTH CENTRAL SOUTH DAKOTA

CITY           SKY/WX    TMP DP  RH WIND       PRES   REMARKS
BUFFALO          N/A     34  31  88 NW26G33   29.97R WCI  21
FAITH            N/A     34  32  92 W9        30.00F WCI  27
MOBRIDGE       CLOUDY    24  20  84 CALM      29.96F
$$

SDZ012>016-024>037-041>051-057-063-072>074-141000-
SOUTHWEST AND SOUTH CENTRAL SOUTH DAKOTA

CITY           SKY/WX    TMP DP  RH WIND       PRES   REMARKS
RAPID CTY ARPT CLOUDY    39  25  57 NW21G29   30.05F
PIERRE         CLOUDY    30  26  85 W7        30.01S WCI  23
CUSTER         CLOUDY    30  19  63 NW12G21   30.03F WCI  20
ELLSWORTH AFB  CLOUDY    39  26  59 NW26G35   30.03F
PHILIP         CLOUDY    36  32  85 NW15G22   30.05F
PINE RIDGE     LGT SNOW  33  32  96 NW8       30.11R FOG     WCI  26
SPEARFISH      CLOUDY    36  23  60 W23G32    30.07F
WINNER         PTSUNNY   31  25  78 W8        30.03S WCI  23
$$

SDZ004>011-016>023-039-040-141000-
NORTHEAST SOUTH DAKOTA

CITY           SKY/WX    TMP DP  RH WIND       PRES   REMARKS
ABERDEEN       CLOUDY    27  27 100 CALM      29.99R
WATERTOWN      CLOUDY    25  24  96 NW5       29.95S WCI  19
BROOKINGS      CLOUDY    25  24  96 CALM      29.97S
SISSETON         N/A     21  18  88 CALM      29.98F
$$

SDZ017-020-022-023-036>040-048>070-141000-
SOUTHEAST SOUTH DAKOTA

CITY           SKY/WX    TMP DP  RH WIND       PRES   REMARKS
SIOUX FALLS    CLOUDY    29  26  89 CALM      29.99R
HURON          CLOUDY    33  27  78 W6        29.99R WCI  28
CHAMBERLAIN    PTCLDY    31  28  86 W12       30.02S WCI  22
MITCHELL       CLOUDY    34  27  75 W9        30.01R WCI  27
YANKTON        CLOUDY    33  24  69 W5        30.01S WCI  29
$$

ABBREVIATIONS USED IN REMARKS
   TC - TEMPERATURE IN CELSIUS
  WCI - WIND CHILL INDEX
   HX - HEAT INDEX
  VSB - VISIBILITY





USA.gov is the U.S. government's official web portal to all federal, state and local government web resources and services.